{"data":{"norad_id":58295,"intl_designator":"2023-174AR","name":"SPACEVAN-001","alt_names":[],"object_type":"PAYLOAD","status":"ACTIVE","operator":null,"country":"FR","launch_date":"2023-11-11","launch_site_code":"AFWTR","launch_vehicle":null,"mission":null,"orbit_class":"UNKNOWN","rcs_meters":null,"size_class":null,"mass_kg":null,"dimensions":null,"purposes":[],"wikipedia_slug":null,"has_3d_model":false,"image_url":null,"decayed_at":null,"tle_current":{"epoch":"2026-05-25T04:58:10.242336Z","epoch_age_seconds":53304,"freshness":"FRESH","line1":"1 58295U 23174AR  26145.20706299  .00014800  00000+0  19942-3 0  9999","line2":"2 58295  97.3987 241.3686 0009008 151.7391 208.4355 15.57889240142562","mean_motion":15.5788924,"eccentricity":0.0009008,"inclination_deg":97.3987,"raan_deg":241.3686,"arg_perigee_deg":151.7391,"mean_anomaly_deg":208.4355,"bstar":0.00019942,"rev_number":14256,"period_min":92.432758570179,"perigee_km":387.66681691132,"apogee_km":399.86707906402,"semimajor_km":6771.9039479877,"source":"CELESTRAK","updated_at":"2026-05-25T13:38:00.645859Z"}}}